Location: Danville Conservation Area
(38.8674°N, 91.5143°W)
Time: 00:31:23
(UTC-06:00)

Envisat - Pass Details

Date: 30 November 2021
Orbit: 764 x 766 km, 98.2° (Epoch: 23 January)

Event Time Altitude Azimuth Distance (km) Brightness Sun altitude
Rises 05:22:44 0° 9° (N) 3,240 6.2 -19.5°
Reaches altitude 10° 05:25:03 10° 6° (N) 2,310 5.4 -19.0°
Maximum altitude 05:30:05 65° 286° (WNW) 843 2.9 -18.1°
Drops below altitude 10° 05:35:05 10° 205° (SSW) 2,293 5.4 -17.1°
Sets 05:37:23 0° 203° (SSW) 3,215 6.1 -16.7°
